This is the latest recevied weather packets stored in our database for station/object KJ4EWA. If no packets are shown the sender has not sent any weather packets the latest 10 day(s).
| Time | Temp. | Humidity | Pressure | Rain* | Wind** | Luminosity | Snow |
|---|---|---|---|---|---|---|---|
| 1778017909 | 24.44° C | 82% | 1016.5 hPa | 0 mm | - | 351 W/m² | - |
| 1778017606 | 25° C | 81% | 1017 hPa | 0 mm | - | 412 W/m² | - |
| 1778017303 | 25° C | 81% | 1016.8 hPa | 0 mm | - | 258 W/m² | - |
| 1778017001 | 25° C | 82% | 1016.9 hPa | 0 mm | - | 124 W/m² | - |
| 1778016697 | 24.44° C | 81% | 1017 hPa | 0 mm | - | 133 W/m² | - |
| 1778016393 | 25.56° C | 80% | 1016.8 hPa | 0 mm | - | 398 W/m² | - |
| 1778016091 | 24.44° C | 81% | 1016.9 hPa | 0 mm | - | 459 W/m² | - |
| 1778015788 | 23.89° C | 82% | 1016.9 hPa | 0 mm | - | 473 W/m² | - |
| 1778015485 | 25° C | 81% | 1016.8 hPa | 0 mm | - | 192 W/m² | - |
| 1778015182 | 25.56° C | 79% | 1017 hPa | 0 mm | - | 198 W/m² | - |
| 1778014878 | 25° C | 81% | 1017 hPa | 0 mm | - | 439 W/m² | - |
| 1778014576 | 24.44° C | 81% | 1017 hPa | 0 mm | - | 110 W/m² | - |
| 1778014274 | 24.44° C | 78% | 1016.9 hPa | 0 mm | - | 179 W/m² | - |
| 1778013970 | 25° C | 78% | 1016.8 hPa | 0 mm | - | 535 W/m² | - |
| 1778013668 | 25° C | 80% | 1017.1 hPa | 0 mm | - | 391 W/m² | - |
| 1778013364 | 25° C | 79% | 1017.1 hPa | 0 mm | - | 503 W/m² | - |
| 1778013062 | 25.56° C | 79% | 1017.1 hPa | 0 mm | - | 557 W/m² | - |
| 1778012757 | 25.56° C | 80% | 1017.4 hPa | 0 mm | - | 564 W/m² | - |
| 1778012454 | 25° C | 79% | 1017.3 hPa | 0 mm | - | 215 W/m² | - |
| 1778012150 | 25.56° C | 78% | 1017.2 hPa | 0 mm | - | 558 W/m² | - |
| 1778011848 | 25° C | 80% | 1017.3 hPa | 0 mm | - | 499 W/m² | - |
| 1778011546 | 25° C | 80% | 1017.4 hPa | 0 mm | - | 171 W/m² | - |
| 1778011242 | 25.56° C | 79% | 1017.5 hPa | 0 mm | - | 309 W/m² | - |
| 1778010939 | 25° C | 80% | 1017.7 hPa | 0 mm | - | 552 W/m² | - |
| 1778010637 | 25° C | 79% | 1017.9 hPa | 0 mm | - | 451 W/m² | - |
* Rain latest hour (hover to see other rain measurements)
** Current wind speed in m/s (hover to see current wind gust speed)